Temp
50 53 50 51 50 51 48 45 39 46 48 50 53 54 52 51 52 53 52 52 52 51 49 49 50 50 52 52 52 52 52 51 50 50 51 50 50 50 52 51 53 52 49 47
36 47 50 45 48 47 47 51 50 51 51 58 58 55 53 54 52 50 51 52 52 51 51 51 51 51 52 51 51 52 51 50 52 52 51 50 49 48 48 48 51 50 49 47
33 43 39 33 40 47 48 52 53 46 51 57 48 49 52 49 50 50 51 49 49 49 49 50 49 52 49 49 50 51 49 51 52 51 50 49 50 50 48 45 45 47 45 45
31 33 27 43 52 51 49 52 53 55 54 56 52 51 51 48 47 47 49 48 48 48 48 49 49 49 48 49 48 48 49 49 49 48 47 48 47 46 45 43 43 42 43 43
29 29 36 43 46 46 45 44 54 52 54 52 51 48 44 49 49 47 47 47 47 47 47 46 46 47 47 46 47 46 45 45 46 45 45 45 44 42 42 42 40 40 44 42
31 26 23 37 48 52 50 33 51 53 50 48 46 33 36 46 48 47 48 47 46 46 46 44 44 45 44 42 42 42 42 42 43 43 42 41 41 40 39 40 40 38 37 38
29 28 31 45 49 51 33 33 47 47 45 44 39 40 44 47 47 47 47 47 47 45 42 42 43 43 40 40 38 40 40 41 41 40 40 40 39 39 36 36 37 36 36 35
30 27 27 49 46 38 38 42 45 44 43 42 44 46 46 46 45 46 45 45 44 41 40 40 40 40 38 36 40 40 40 39 39 39 39 40 38 37 38 38 36 36 36 36
34 33 44 46 43 45 46 45 44 44 45 46 44 44 45 43 44 45 43 41 41 38 38 39 39 39 39 38 40 39 37 36 36 37 37 37 36 36 36 36 35 35 34 34
36 43 45 45 46 47 47 45 46 47 46 46 42 43 43 43 42 41 40 38 38 36 36 36 39 39 38 39 39 37 35 33 34 34 34 35 35 35 35 34 34 33 33 33
36 44 46 47 45 45 46 47 47 48 46 44 43 43 43 41 40 38 38 37 37 35 34 34 38 38 38 38 37 35 34 33 33 34 33 34 35 34 34 34 34 33 33 33
30 42 41 43 45 48 45 45 47 46 44 45 44 42 42 40 39 37 36 35 34 34 33 33 34 33 34 37 36 33 31 33 33 33 33 33 33 34 35 35 34 35 35 34
42 49 46 46 49 50 47 46 47 46 45 43 45 43 43 39 37 37 35 34 33 32 31 31 31 30 32 33 34 32 31 32 33 33 33 33 33 32 32 35 36 36 35 35
49 47 43 46 43 48 47 47 48 47 46 45 43 43 42 37 33 28 27 31 31 29 28 26 26 26 29 30 31 33 33 33 33 33 33 33 32 33 32 32 31 32 33 34
47 48 45 46 47 47 46 45 43 42 43 43 43 41 40 36 31 29 24 23 22 19 19 20 20 24 24 24 25 27 28 31 32 33 33 33 33 33 33 32 32 32 31 29
47 47 46 44 44 44 44 43 39 40 42 42 41 40 40 37 34 32 28 24 23 20 18 16 20 26 25 23 24 27 24 25 27 31 33 33 33 32 33 32 32 32 29 27
38 37 40 40 41 42 42 41 39 40 41 41 40 40 39 36 34 24 22 22 21 19 20 19 24 27 26 26 26 26 25 26 25 29 30 32 32 32 32 31 31 31 26 23
44 43 44 40 38 39 41 41 40 41 40 41 38 27 23 27 29 23 20 16 16 17 22 25 26 27 26 29 29 26 24 27 27 27 29 31 32 32 32 31 31 29 22 23
45 43 42 42 40 39 38 39 40 40 34 33 27 27 27 26 24 24 19 17 18 21 27 28 28 29 30 30 27 24 24 25 25 27 27 28 31 32 32 31 31 31 24 23
43 44 42 41 41 39 38 39 36 36 34 29 20 19 22 24 23 21 22 25 29 30 31 32 31 30 31 30 23 22 24 23 25 26 26 27 29 31 32 31 31 31 27 25
40 40 39 36 36 33 28 28 26 29 27 22 25 26 26 26 22 23 21 27 31 31 33 32 31 29 26 23 20 21 21 21 21 23 25 25 27 30 31 32 32 31 29 28
31 30 29 30 29 29 30 31 29 23 22 21 19 19 19 22 22 25 29 31 33 27 31 31 30 24 24 18 22 18 22 22 23 22 23 24 26 28 29 31 32 32 31 30
31 31 28 25 26 30 28 26 26 29 31 31 31 32 31 32 32 30 30 32 32 31 31 29 25 22 20 15 16 16 17 19 19 21 20 22 25 27 29 30 31 32 31 31
29 28 28 27 27 24 23 26 27 30 30 30 30 30 30 30 27 28 31 29 28 26 24 23 23 22 19 18 15 16 18 18 18 18 19 17 23 25 28 29 31 32 32 32
27 28 27 24 27 27 26 27 24 22 22 24 21 23 26 25 24 25 24 23 25 25 24 24 24 24 20 19 15 15 17 19 19 17 20 21 23 26 28 29 30 32 33 32
29 27 28 30 27 25 24 24 20 19 19 16 16 15 15 20 21 21 19 19 20 20 18 16 13 13 12 15 16 16 16 19 18 19 18 19 18 22 25 28 30 31 33 33
29 26 26 25 25 25 22 20 17 15 17 13 11 11 16 13 13 15 13 11 11 14 15 16 16 16 15 15 14 15 16 17 17 20 20 18 14 19 25 26 28 29 33 33
MSLP
1003.49 1003.59 1003.51 1003.69 1004.09 1004.58 1004.92 1005.57 1005.77 1006.15 1006.60 1007.37 1007.87 1008.74 1010.00 1010.93 1011.82 1012.67 1013.44 1013.98 1014.41 1014.89 1015.37 1015.76 1015.83 1015.80 1015.61 1015.49 1015.32 1015.06 1014.92 1014.79 1014.53 1013.99 1013.49 1013.17 1012.80 1012.43 1012.12 1011.61 1011.17 1010.78 1010.47 1010.22
1005.19 1004.91 1004.99 1004.63 1004.29 1004.63 1004.95 1004.64 1004.67 1004.95 1004.99 1005.61 1007.39 1008.87 1010.34 1011.19 1011.90 1012.89 1013.44 1013.83 1014.31 1015.05 1015.37 1015.57 1015.66 1015.66 1015.55 1015.57 1015.41 1015.15 1014.92 1014.68 1014.30 1013.87 1013.56 1013.37 1013.04 1012.66 1012.07 1011.70 1011.38 1010.71 1010.08 1009.98
1006.84 1006.55 1006.61 1006.12 1004.26 1004.33 1004.13 1003.81 1003.72 1003.94 1004.50 1005.18 1007.95 1009.54 1010.49 1011.41 1012.04 1012.85 1013.65 1014.34 1014.82 1015.19 1015.38 1015.43 1015.41 1015.43 1015.66 1015.64 1015.57 1015.39 1015.15 1015.06 1014.75 1014.32 1014.07 1013.76 1013.35 1012.90 1012.56 1012.15 1011.61 1011.26 1011.16 1010.51
1008.21 1008.09 1006.90 1003.91 1002.67 1003.02 1003.78 1003.53 1003.66 1003.60 1004.23 1005.50 1007.84 1009.72 1010.79 1011.57 1012.29 1013.21 1013.91 1014.42 1014.78 1014.90 1015.08 1015.41 1015.51 1015.64 1015.80 1015.70 1015.65 1015.49 1015.19 1015.06 1015.01 1014.67 1014.32 1013.81 1013.42 1012.89 1012.67 1012.18 1011.70 1011.42 1011.01 1010.54
1008.91 1008.36 1005.83 1004.14 1003.62 1003.24 1003.13 1003.12 1003.53 1004.45 1004.94 1006.09 1007.99 1009.56 1011.65 1011.86 1012.44 1013.25 1013.75 1014.02 1014.42 1015.05 1015.52 1015.68 1015.99 1016.18 1016.11 1015.97 1015.72 1015.64 1015.60 1015.31 1015.13 1014.71 1014.14 1013.62 1013.24 1012.77 1012.54 1012.02 1011.32 1010.83 1010.43 1009.97
1008.98 1008.27 1006.43 1004.09 1003.15 1003.12 1003.71 1003.84 1003.61 1004.06 1005.27 1006.42 1007.46 1010.13 1012.02 1012.02 1012.53 1013.19 1013.70 1014.34 1014.87 1015.30 1015.73 1016.09 1016.33 1016.29 1016.30 1016.29 1016.13 1016.05 1015.98 1015.65 1015.19 1014.71 1014.26 1013.73 1013.12 1012.62 1012.13 1011.61 1011.16 1010.58 1010.37 1010.14
1007.98 1007.46 1005.70 1004.17 1003.63 1003.81 1005.25 1005.13 1004.39 1004.83 1005.94 1007.05 1008.42 1009.94 1011.31 1011.80 1012.52 1013.25 1013.90 1014.49 1014.98 1015.53 1016.14 1016.51 1016.51 1016.44 1016.59 1016.54 1016.57 1016.50 1016.09 1015.63 1015.14 1014.94 1014.16 1013.50 1012.88 1012.40 1011.98 1011.62 1011.18 1010.62 1010.26 1009.81
1007.86 1007.38 1006.02 1004.10 1004.55 1004.87 1005.51 1006.00 1005.78 1006.41 1007.27 1008.18 1009.13 1010.14 1010.97 1011.64 1012.56 1013.42 1014.20 1014.88 1015.45 1015.91 1016.34 1016.56 1016.72 1016.62 1016.53 1016.56 1016.49 1016.42 1015.94 1015.33 1014.99 1014.42 1013.96 1013.31 1012.82 1012.14 1011.56 1011.22 1010.75 1010.22 1009.69 1009.13
1006.10 1005.33 1004.43 1004.26 1004.56 1005.29 1005.79 1006.59 1007.31 1007.52 1008.22 1008.68 1009.56 1010.60 1011.37 1012.22 1013.00 1013.79 1014.68 1015.35 1015.89 1016.39 1016.67 1016.80 1016.72 1016.77 1016.73 1016.69 1016.38 1016.06 1015.69 1015.43 1014.82 1014.09 1013.60 1013.03 1012.40 1011.73 1011.26 1010.91 1010.48 1009.94 1009.46 1008.85
1005.43 1004.83 1004.52 1004.89 1005.29 1005.83 1006.43 1007.20 1008.07 1008.45 1008.91 1009.39 1010.13 1010.89 1011.83 1012.75 1013.59 1014.43 1015.05 1015.69 1016.26 1016.70 1016.84 1016.93 1016.90 1017.00 1016.90 1016.71 1016.33 1015.97 1015.63 1015.27 1014.72 1013.86 1013.18 1012.61 1012.07 1011.59 1011.21 1010.82 1010.37 1009.92 1009.35 1008.77
1004.43 1004.06 1004.31 1005.00 1005.41 1005.96 1006.76 1007.52 1008.21 1008.99 1009.68 1010.44 1010.84 1011.55 1012.33 1013.16 1013.98 1014.79 1015.39 1015.94 1016.46 1016.84 1017.06 1017.12 1017.12 1017.00 1016.81 1016.59 1016.22 1016.28 1015.80 1015.20 1014.50 1013.78 1013.11 1012.35 1011.80 1011.40 1011.06 1010.66 1010.32 1009.77 1009.25 1008.75
1003.40 1003.61 1003.86 1004.68 1005.32 1005.86 1006.75 1007.53 1008.35 1009.25 1010.17 1010.95 1011.43 1012.08 1012.71 1013.57 1014.30 1015.01 1015.66 1016.13 1016.56 1016.88 1017.15 1017.25 1017.19 1016.99 1016.65 1016.58 1016.46 1016.50 1016.02 1015.41 1014.60 1013.74 1012.93 1012.28 1011.66 1011.02 1010.76 1010.31 1009.76 1009.29 1008.69 1008.38
1002.64 1002.69 1003.55 1004.18 1005.00 1005.88 1006.76 1007.49 1008.22 1009.12 1010.02 1010.88 1011.71 1012.34 1012.86 1013.74 1014.46 1015.13 1015.77 1016.22 1016.71 1017.01 1017.16 1017.34 1017.38 1017.09 1016.73 1016.59 1016.67 1016.29 1015.89 1015.27 1014.34 1013.64 1012.85 1012.12 1011.57 1011.09 1010.33 1009.54 1009.17 1008.67 1008.17 1007.74
1002.00 1002.63 1003.52 1004.17 1005.37 1005.99 1006.71 1007.60 1008.46 1009.24 1010.02 1010.95 1011.72 1012.26 1012.96 1014.00 1014.71 1015.09 1015.87 1016.37 1016.76 1017.11 1017.26 1017.36 1017.30 1017.15 1016.72 1016.52 1016.60 1016.17 1015.63 1014.99 1014.27 1013.42 1012.65 1011.84 1011.44 1010.91 1010.35 1009.65 1008.89 1008.24 1007.78 1007.43
1002.15 1002.62 1003.35 1004.36 1005.34 1006.45 1007.08 1007.87 1008.96 1009.66 1010.24 1011.16 1011.65 1012.10 1012.91 1013.97 1014.79 1015.19 1015.83 1016.30 1016.78 1017.11 1017.17 1016.97 1017.08 1016.72 1016.62 1016.28 1016.35 1015.98 1015.29 1014.61 1013.94 1013.11 1012.32 1011.63 1011.03 1010.46 1009.95 1009.44 1008.84 1008.30 1007.82 1007.32
1002.37 1003.01 1003.99 1004.93 1005.85 1006.73 1007.38 1008.27 1009.06 1009.83 1010.31 1010.90 1011.41 1012.01 1012.57 1013.44 1014.28 1015.16 1015.65 1016.12 1016.85 1017.08 1016.94 1016.89 1016.60 1016.32 1016.21 1015.86 1015.79 1015.46 1014.90 1014.28 1013.65 1012.89 1011.98 1011.28 1010.60 1009.98 1009.48 1009.09 1008.62 1008.22 1007.95 1007.75
1002.97 1003.80 1004.55 1005.44 1006.24 1006.94 1007.54 1008.25 1009.02 1009.62 1010.33 1010.85 1011.30 1011.87 1012.62 1013.26 1014.17 1014.96 1015.64 1015.72 1015.87 1015.82 1016.11 1016.25 1015.81 1015.63 1015.38 1015.32 1015.13 1014.88 1014.46 1013.85 1013.23 1012.56 1011.85 1011.18 1010.46 1009.72 1009.19 1008.80 1008.46 1008.08 1007.99 1007.83
1003.20 1003.90 1004.61 1005.46 1006.37 1007.13 1007.74 1008.29 1008.94 1009.51 1010.33 1010.82 1011.54 1012.07 1012.64 1013.34 1014.10 1014.52 1015.20 1015.22 1015.55 1015.42 1015.22 1015.14 1014.81 1014.72 1014.70 1014.46 1014.31 1014.12 1014.07 1013.54 1012.95 1012.32 1011.64 1010.89 1010.27 1009.59 1008.94 1008.55 1008.19 1007.97 1007.84 1007.83
1003.52 1004.26 1004.99 1005.82 1006.52 1007.27 1007.90 1008.51 1009.01 1009.46 1010.22 1010.88 1011.52 1012.21 1012.53 1013.03 1013.37 1013.80 1014.15 1015.01 1015.04 1014.73 1013.91 1013.79 1013.68 1013.83 1013.89 1013.70 1013.71 1013.65 1013.61 1013.13 1012.58 1012.02 1011.34 1010.63 1009.87 1009.26 1008.56 1008.08 1007.81 1007.61 1007.53 1007.62
1003.98 1004.53 1005.34 1006.19 1006.85 1007.60 1008.24 1008.58 1009.14 1009.94 1010.57 1011.22 1011.80 1012.31 1012.69 1012.79 1012.94 1013.40 1013.50 1013.54 1013.08 1012.74 1012.68 1012.71 1012.88 1013.05 1012.96 1012.98 1013.14 1013.05 1013.07 1012.72 1012.25 1011.68 1011.04 1010.38 1009.68 1008.86 1008.26 1007.69 1007.38 1007.22 1007.12 1007.18
1004.68 1005.44 1006.21 1006.97 1007.71 1008.08 1008.59 1009.21 1009.81 1010.35 1010.74 1011.19 1011.72 1012.03 1012.01 1012.07 1012.24 1012.37 1012.61 1012.42 1011.66 1011.65 1011.68 1011.66 1011.89 1012.06 1012.18 1012.34 1012.43 1012.47 1012.57 1012.21 1011.79 1011.33 1010.76 1010.13 1009.44 1008.62 1007.93 1007.31 1006.82 1006.64 1006.57 1006.63
1005.57 1006.37 1007.42 1008.26 1008.81 1009.42 1009.75 1010.14 1010.54 1010.87 1011.17 1011.46 1011.68 1011.77 1011.78 1011.82 1011.94 1011.62 1011.26 1011.07 1010.64 1010.66 1010.72 1010.85 1011.14 1011.42 1011.67 1011.81 1011.94 1012.12 1012.04 1011.70 1011.36 1010.92 1010.42 1009.87 1009.28 1008.50 1007.70 1007.00 1006.33 1005.99 1005.88 1005.95
1006.75 1007.42 1008.16 1008.80 1009.31 1009.82 1010.16 1010.43 1010.72 1011.03 1011.26 1011.48 1011.55 1011.49 1011.32 1011.08 1010.87 1010.81 1010.41 1010.05 1009.91 1010.00 1010.29 1010.63 1011.00 1011.20 1011.29 1011.43 1011.59 1011.55 1011.44 1011.14 1010.80 1010.44 1010.00 1009.52 1009.02 1008.36 1007.44 1006.71 1005.98 1005.40 1005.20 1005.15
1007.09 1007.79 1008.57 1009.05 1009.40 1009.85 1010.54 1010.79 1011.04 1011.00 1011.31 1011.37 1011.44 1011.25 1011.01 1010.69 1010.49 1010.37 1010.31 1010.41 1010.55 1010.77 1010.92 1010.91 1010.83 1010.83 1010.92 1010.98 1010.91 1011.07 1010.80 1010.51 1010.22 1009.89 1009.48 1009.06 1008.57 1007.92 1007.09 1006.23 1005.55 1004.83 1004.53 1004.40
1007.63 1008.11 1008.60 1009.19 1009.82 1010.32 1010.62 1010.99 1011.05 1011.18 1011.39 1011.35 1011.25 1011.14 1011.14 1011.01 1011.19 1011.05 1011.00 1010.80 1010.60 1010.58 1010.56 1010.36 1010.29 1010.27 1010.30 1010.28 1010.29 1010.40 1010.11 1009.76 1009.53 1009.33 1008.94 1008.55 1008.05 1007.45 1006.69 1005.87 1005.09 1004.25 1003.76 1003.59
1008.10 1008.50 1008.72 1009.16 1009.53 1010.01 1010.49 1010.79 1011.06 1011.30 1011.53 1011.77 1011.76 1011.44 1011.42 1011.16 1011.00 1011.00 1010.86 1010.70 1010.54 1010.41 1010.40 1010.18 1009.98 1009.87 1009.84 1009.76 1009.63 1009.49 1009.32 1009.05 1008.78 1008.47 1008.15 1007.84 1007.42 1006.92 1006.26 1005.41 1004.62 1003.96 1003.04 1002.83
1008.15 1008.43 1008.78 1009.31 1009.46 1009.76 1010.21 1010.82 1011.13 1011.42 1011.71 1011.93 1012.01 1011.55 1011.52 1011.50 1011.43 1011.35 1011.25 1011.05 1010.87 1010.59 1010.15 1009.79 1009.53 1009.33 1009.18 1009.09 1008.92 1008.69 1008.50 1008.28 1008.04 1007.80 1007.44 1007.11 1006.67 1006.29 1005.75 1005.08 1004.40 1003.68 1002.46 1002.01
Wind_Speed
7 5 2 4 8 11 14 8 11 13 12 15 13 11 12 11 9 9 8 7 6 2 4 5 5 5 5 5 6 6 7 7 8 8 8 8 8 9 11 10 12 11 9 9
3 5 1 10 13 9 12 16 10 9 17 21 15 7 9 10 10 8 7 6 6 8 5 4 4 5 7 7 7 6 6 7 8 8 8 8 8 9 8 9 12 11 10 7
1 5 8 10 18 18 13 12 11 17 7 19 17 11 9 9 9 8 8 8 6 5 4 4 5 5 6 6 6 8 7 10 11 11 10 12 13 13 11 7 8 11 10 6
3 6 8 7 11 22 19 14 8 6 10 16 21 16 12 8 11 10 8 6 4 4 6 6 5 6 6 6 7 7 9 8 11 12 13 13 11 9 9 6 5 5 8 8
5 6 8 5 4 7 13 12 14 5 10 21 20 17 11 13 11 9 7 6 5 4 3 4 7 6 6 6 7 8 10 12 12 13 15 13 12 9 8 9 6 5 7 6
5 6 11 3 9 5 6 8 5 7 12 20 11 7 4 9 9 8 8 5 5 5 5 7 6 6 7 8 8 9 11 12 13 13 12 14 12 10 7 7 9 5 6 6
4 4 7 4 8 8 8 6 3 13 13 12 8 7 9 9 9 8 7 7 6 7 6 5 6 7 6 5 7 11 12 11 11 12 12 12 10 9 6 6 9 10 9 7
4 3 12 10 5 11 6 4 13 13 13 16 13 11 10 11 8 8 7 8 7 6 6 6 6 5 6 5 8 12 12 12 12 11 9 10 12 11 9 9 9 9 9 9
8 5 3 5 6 7 8 11 7 11 11 12 11 11 10 8 8 7 8 7 6 6 5 5 6 7 9 8 10 10 12 12 11 11 10 9 10 10 7 7 6 9 8 9
5 4 4 7 6 7 10 10 9 10 10 10 11 9 8 7 6 7 7 6 6 6 5 5 7 9 8 9 9 10 12 12 11 10 11 9 6 5 6 6 6 7 8 9
3 3 7 9 11 11 9 10 11 9 9 8 9 8 7 6 7 7 6 5 4 4 4 5 6 6 7 8 9 11 13 12 10 8 9 9 7 6 6 6 6 8 8 8
5 7 6 10 10 13 13 12 12 11 8 7 6 7 7 7 7 6 6 4 4 3 3 4 5 5 6 8 9 9 10 11 9 8 8 7 7 8 7 11 13 15 16 12
5 10 7 14 15 12 13 13 10 10 9 8 6 6 6 6 6 8 6 4 1 1 2 4 5 6 6 6 7 8 9 10 8 8 8 8 7 7 10 8 11 12 13 13
7 8 7 9 8 13 12 12 12 9 8 7 6 6 6 7 5 7 5 4 3 2 4 4 4 6 5 5 7 9 8 10 8 7 8 7 7 8 8 8 9 8 8 10
9 8 8 14 13 11 15 12 10 7 7 6 7 7 7 8 7 6 5 5 4 3 5 3 4 6 5 5 6 7 5 6 7 7 7 9 7 7 7 7 7 7 5 5
7 11 12 12 11 12 13 11 9 8 8 7 8 8 8 8 7 7 6 6 5 4 5 4 6 7 6 5 7 6 5 7 8 8 8 8 8 7 6 6 7 6 3 4
7 8 9 8 8 10 11 8 9 8 6 5 7 7 8 8 6 4 6 7 7 6 6 5 8 6 6 6 6 5 4 5 8 7 7 8 9 10 8 6 6 6 2 3
8 7 10 10 8 7 8 8 8 8 7 6 5 5 5 7 8 8 7 5 3 4 6 8 7 7 6 6 6 3 3 6 6 6 7 8 9 9 9 8 6 6 3 2
9 9 9 9 9 8 7 6 6 5 5 6 7 8 8 8 7 7 5 5 6 7 11 7 8 7 7 7 3 2 3 6 6 7 6 9 8 8 8 7 7 6 3 3
8 7 9 8 8 6 5 4 4 3 4 5 4 3 5 7 7 7 7 10 11 9 6 7 7 7 7 5 1 2 4 5 6 7 7 7 8 9 9 9 7 6 4 4
9 9 9 9 7 5 3 3 4 3 4 4 6 7 9 7 6 6 4 7 9 9 11 11 9 5 4 3 1 2 4 5 5 6 7 8 9 10 9 9 7 6 5 5
8 11 10 9 8 6 6 6 6 4 4 3 4 3 3 5 5 6 9 11 7 7 5 4 5 5 2 2 2 3 5 5 6 5 6 7 8 10 9 10 8 6 5 6
10 9 7 7 6 3 2 2 2 1 2 4 5 5 5 5 4 6 8 5 7 7 4 1 0 3 5 2 4 4 5 5 5 5 5 5 8 9 10 10 9 7 6 6
6 6 5 5 5 5 4 3 2 1 1 2 4 5 5 5 4 2 5 6 7 4 1 3 4 5 5 4 4 4 5 5 5 5 5 7 7 8 10 9 10 8 7 8
6 4 4 4 3 4 6 5 4 3 3 2 1 0 2 2 2 3 2 2 4 4 4 6 6 7 4 4 4 4 5 5 5 5 5 7 7 8 10 10 10 10 7 7
5 3 3 7 4 3 3 3 3 1 2 2 3 3 3 1 1 2 3 4 4 5 4 4 4 4 4 4 5 5 5 5 5 6 6 6 5 7 10 10 10 12 8 8
3 4 3 3 2 4 3 3 3 1 0 1 2 3 3 3 3 4 4 3 4 5 5 5 5 5 4 5 5 5 4 4 5 6 6 6 4 5 9 9 10 12 10 8
Wind_Direction
217 72 44 161 208 232 231 195 189 200 179 171 172 163 131 135 139 134 113 102 94 86 23 33 23 350 332 314 307 299 301 296 287 281 277 273 275 273 274 273 278 269 253 239
357 357 44 288 273 269 277 246 235 198 209 171 150 98 136 147 122 112 105 90 59 74 52 17 356 2 5 343 323 317 305 296 295 301 303 306 314 311 306 305 309 295 289 302
306 44 36 285 231 237 245 252 221 229 205 127 131 184 145 116 111 109 85 85 74 57 30 15 351 341 332 331 343 341 346 347 339 333 343 336 333 332 330 340 341 336 321 314
104 91 227 254 187 205 220 230 252 216 128 140 135 132 120 133 109 98 95 85 68 41 17 359 352 353 356 354 346 342 329 348 349 336 324 316 310 315 313 300 306 309 316 332
170 203 319 257 183 171 187 240 224 166 141 123 120 107 83 103 102 104 90 64 54 46 13 14 30 17 1 346 341 349 352 339 333 326 315 316 309 304 291 288 282 275 290 303
161 192 211 267 184 153 76 266 233 176 136 138 133 114 161 109 102 90 79 81 68 43 41 44 13 5 9 5 357 346 339 327 320 318 319 312 300 296 282 289 292 298 300 278
165 219 284 216 116 109 156 238 101 108 109 107 92 119 145 111 94 95 92 69 59 63 61 26 16 20 2 351 357 339 324 318 322 314 308 305 306 303 304 316 311 302 288 270
155 202 253 153 100 162 175 48 98 93 102 104 108 106 102 92 84 77 70 70 69 61 42 23 15 353 331 2 341 331 323 320 308 308 310 313 307 300 294 300 299 296 299 299
187 214 254 153 124 122 116 112 97 102 104 107 105 101 98 93 86 80 85 73 63 55 26 2 4 355 347 334 333 322 327 317 313 310 302 300 303 300 308 308 302 304 304 301
137 225 144 122 100 104 116 106 100 97 99 99 102 98 100 100 98 95 82 72 61 37 2 358 3 345 325 317 318 317 321 317 311 310 307 306 299 295 298 303 303 303 303 301
182 173 109 143 136 129 112 112 105 93 96 101 104 113 120 115 107 102 91 75 66 45 26 6 342 323 324 333 346 330 322 316 311 309 307 306 302 294 292 281 267 296 298 293
197 186 126 153 143 132 125 122 120 117 108 115 121 133 122 116 117 114 106 93 70 49 26 320 322 328 335 351 342 327 317 321 315 316 312 308 308 309 268 266 275 283 285 276
161 156 146 149 155 155 143 139 135 128 133 135 137 129 129 125 129 126 116 104 104 293 300 301 305 326 308 337 331 313 309 309 308 310 314 315 315 312 315 309 279 285 292 296
145 131 132 134 137 121 122 119 119 122 124 133 140 142 145 137 132 133 152 176 181 254 281 270 286 294 296 303 301 323 303 306 309 304 309 306 305 304 302 302 312 316 305 301
130 107 128 125 127 131 124 120 122 131 145 162 171 166 156 149 161 175 184 180 181 233 263 260 265 277 275 269 279 283 292 307 308 305 305 300 291 292 292 294 298 303 311 315
113 126 118 128 137 139 135 138 145 170 180 188 180 174 171 163 167 186 183 173 156 235 250 252 255 262 267 274 275 278 275 282 295 303 305 311 306 290 296 294 299 302 308 318
120 125 127 130 137 148 156 154 163 176 188 194 189 174 162 164 165 159 191 201 197 217 230 228 252 254 262 264 263 264 273 285 292 302 303 316 313 307 297 296 295 299 275 287
137 136 145 149 152 146 151 159 169 173 184 192 156 141 142 163 197 206 214 202 239 270 248 249 244 242 255 274 281 264 279 303 296 296 304 307 311 306 300 289 290 292 259 290
133 139 137 146 146 148 151 146 160 171 174 172 148 187 193 198 201 211 184 185 218 242 261 247 230 218 248 265 242 258 290 292 290 299 293 301 303 303 297 285 286 286 210 225
135 131 125 134 129 134 135 108 125 134 157 155 149 141 208 228 215 210 200 213 220 229 216 227 223 228 240 249 190 252 276 279 291 298 296 301 302 303 305 284 271 273 213 207
133 126 120 123 128 110 118 120 126 178 242 170 185 214 220 231 210 203 198 241 246 229 235 241 232 219 210 165 277 249 265 278 281 288 296 298 303 301 302 293 272 256 219 205
89 92 91 87 84 76 54 45 48 32 8 318 293 276 253 253 235 230 227 247 266 224 229 211 202 184 179 285 235 244 261 264 278 279 290 295 300 302 303 301 282 254 220 204
107 110 107 102 109 107 125 150 183 231 246 254 259 256 251 250 239 262 278 240 238 246 219 154 26 324 296 254 236 240 251 262 264 274 272 285 296 299 299 302 288 267 228 207
93 83 91 109 111 85 69 32 60 107 298 8 37 12 342 323 300 346 32 41 51 40 4 260 247 244 251 249 248 249 254 257 262 264 269 276 288 291 294 288 296 272 245 214
105 108 111 115 134 151 161 166 140 95 68 41 4 94 70 44 78 329 324 291 277 262 246 244 253 264 262 254 243 246 251 252 250 257 271 276 283 295 303 301 301 284 252 222
152 189 178 175 170 150 140 111 107 65 44 8 331 330 324 298 285 293 282 282 281 285 275 269 259 255 248 248 250 251 253 266 262 260 261 265 262 293 294 298 299 297 258 232
170 117 99 105 108 126 121 114 105 251 167 160 255 284 283 295 295 293 287 286 276 271 266 265 260 257 253 251 251 251 253 259 260 273 274 261 256 277 301 298 309 310 276 232